{"data":{"norad_id":51883,"epoch":"2026-09-19T07:01:12.285984Z","epoch_age_seconds":160483,"freshness":"FRESH","line1":"1 51883U 22022AH  26262.29250331  .00000366  00000+0  21964-4 0  9996","line2":"2 51883  53.1594 195.0185 0001239  93.3068 266.8076 15.34392397252670","mean_motion":15.34392397,"eccentricity":0.0001239,"inclination_deg":53.1594,"raan_deg":195.0185,"arg_perigee_deg":93.3068,"mean_anomaly_deg":266.8076,"bstar":2.1964e-5,"rev_number":25267,"period_min":93.848223102216,"perigee_km":461.87825511305,"apogee_km":463.57342092431,"semimajor_km":6840.8628380187,"source":"CELESTRAK","updated_at":"2026-09-20T09:00:39.971726Z"}}